Weather History for KS32 - March, 2013

Change the Weather History Date:

Monday, March 11, 2013

  Actual Average (KJMS) Record (KJMS)
Temperature  
Mean Temperature 10 °F 25 °F  
Max Temperature 23 °F 34 °F 63 °F (2012)
Min Temperature -4 °F 16 °F -23 °F (1948)
Degree Days  
Heating Degree Days 56 40  
Month to date heating degree days 464  
Since 1 July heating degree days 7223  
Cooling Degree Days 0 0  
Month to date cooling degree days 0  
Year to date cooling degree days 0  
Moisture  
Dew Point 8 °F    
Average Humidity 91    
Maximum Humidity 100    
Minimum Humidity 73    
Precipitation  
Precipitation 0.04 in 0.03 in 0.49 in (1977)
Month to date precipitation 0.26  
Year to date precipitation 1.11  
Sea Level Pressure  
Sea Level Pressure 29.87 in    
Wind  
Wind Speed 5 mph (West)    
Max Wind Speed 20 mph    
Max Gust Speed -    
Visibility 9 miles    
Events Rain , Snow    
T = Trace of Precipitation, MM = Missing Value Source: NWS Daily Summary

Daily Weather History Graph

Daily Weather History Graph

Search for Another Location

Airport or City:

Trip Planner

Search our weather history database for the weather conditions in past years. The results will help you decide how hot, cold, wet, or windy it might be!

Date:

Astronomy

Mar. 11, 2013 Rise Set
Actual Time 7:52 AM CDT 7:32 PM CDT
Civil Twilight 7:22 AM CDT 8:03 PM CDT
Nautical Twilight 6:46 AM CDT 8:38 PM CDT
Astronomical Twilight 6:10 AM CDT 9:15 PM CDT
Moon 7:25 AM CDT (3/11) 7:50 PM CDT (3/11)
Length of Visible Light 12h 40m
Length of Day
11h 39m
Waning Crescent, 0% of the Moon is Illuminated
Mar 11
Waning Crescent
Mar 11
New
Mar 19
First Quarter
Mar 27
Full
Apr 2
Last Quarter

Hourly Weather History & Observations

Time (CDT) Temp. Windchill Dew Point Humidity Pressure Visibility Wind Dir Wind Speed Gust Speed Precip Events Conditions
12:35 AM 1.4 °F -8.3 °F -0.4 °F 92% 30.07 in 10.0 mi NNW 4.6 mph - N/A   Clear
12:55 AM 1.4 °F -8.3 °F -0.4 °F 92% 30.06 in 10.0 mi NW 4.6 mph - N/A   Clear
1:15 AM -0.4 °F -8.3 °F -0.4 °F 100% 30.05 in 10.0 mi NW 3.5 mph - N/A   Clear
1:35 AM -0.4 °F -8.3 °F -0.4 °F 100% 30.04 in 10.0 mi WNW 3.5 mph - N/A   Clear
1:55 AM 1.4 °F -8.3 °F -0.4 °F 92% 30.03 in 10.0 mi NW 4.6 mph - N/A   Clear
2:15 AM 1.4 °F -6.2 °F -0.4 °F 92% 30.02 in 10.0 mi NW 3.5 mph - N/A   Clear
2:35 AM 1.4 °F -6.2 °F -0.4 °F 92% 30.02 in 10.0 mi NW 3.5 mph - N/A   Clear
2:55 AM 1.4 °F - -0.4 °F 92% 30.01 in 10.0 mi Calm Calm - N/A   Clear
3:15 AM 1.4 °F - -0.4 °F 92% 30.00 in 10.0 mi Calm Calm - N/A   Clear
3:35 AM -0.4 °F -13.4 °F -2.2 °F 92% 29.99 in 10.0 mi West 6.9 mph - N/A   Clear
3:55 AM -0.4 °F -12.0 °F -2.2 °F 92% 29.98 in 10.0 mi WNW 5.8 mph - N/A   Clear
4:15 AM -0.4 °F -12.0 °F -2.2 °F 92% 29.96 in 10.0 mi NW 5.8 mph - N/A   Scattered Clouds
4:35 AM -0.4 °F - -2.2 °F 92% 29.95 in 10.0 mi Calm Calm - N/A   Partly Cloudy
4:55 AM -0.4 °F - -4.0 °F 85% 29.94 in 10.0 mi Calm Calm - N/A   Partly Cloudy
5:15 AM -2.2 °F - -4.0 °F 92% 29.94 in 10.0 mi Calm Calm - N/A   Partly Cloudy
5:35 AM -2.2 °F -10.4 °F -5.8 °F 85% 29.94 in 10.0 mi WNW 3.5 mph - N/A   Scattered Clouds
5:55 AM -2.2 °F - -4.0 °F 92% 29.93 in 10.0 mi Calm Calm - N/A   Partly Cloudy
6:15 AM -4.0 °F -14.6 °F -7.6 °F 85% 29.94 in 10.0 mi WNW 4.6 mph - N/A   Scattered Clouds
6:35 AM -2.2 °F -10.4 °F -5.8 °F 85% 29.93 in 10.0 mi WNW 3.5 mph - N/A   Partly Cloudy
6:55 AM -2.2 °F - -4.0 °F 92% 29.92 in 10.0 mi Calm Calm - N/A   Partly Cloudy
7:15 AM -0.4 °F - -2.2 °F 92% 29.91 in 10.0 mi Calm Calm - N/A   Partly Cloudy
7:35 AM -0.4 °F -8.3 °F -0.4 °F 100% 29.91 in 10.0 mi WSW 3.5 mph - N/A   Partly Cloudy
7:55 AM 1.4 °F -8.3 °F -0.4 °F 92% 29.90 in 10.0 mi West 4.6 mph - N/A   Partly Cloudy
8:15 AM 1.4 °F - 1.4 °F 100% 29.89 in 10.0 mi Calm Calm - N/A   Partly Cloudy
8:35 AM 3.2 °F - 1.4 °F 92% 29.88 in 10.0 mi Calm Calm - N/A   Partly Cloudy
8:55 AM 5.0 °F -5.6 °F 3.2 °F 92% 29.88 in 10.0 mi West 5.8 mph - N/A   Mostly Cloudy
9:15 AM 5.0 °F - 5.0 °F 100% 29.87 in 10.0 mi Calm Calm - N/A   Overcast
9:35 AM 6.8 °F - 5.0 °F 92% 29.86 in 10.0 mi Calm Calm - N/A   Scattered Clouds
9:55 AM 6.8 °F -3.5 °F 6.8 °F 100% 29.85 in 10.0 mi SE 5.8 mph - N/A   Mostly Cloudy
10:15 AM 6.8 °F -0.1 °F 5.0 °F 92% 29.85 in 10.0 mi ESE 3.5 mph - N/A   Mostly Cloudy
10:35 AM 8.6 °F - 6.8 °F 92% 29.86 in 10.0 mi Calm Calm - N/A   Mostly Cloudy
10:55 AM 8.6 °F 2.0 °F 6.8 °F 92% 29.85 in 10.0 mi South 3.5 mph - N/A   Mostly Cloudy
11:15 AM 10.4 °F - 8.6 °F 92% 29.86 in 10.0 mi Calm Calm - N/A   Mostly Cloudy
11:35 AM 10.4 °F - 8.6 °F 92% 29.86 in 10.0 mi Calm Calm - N/A   Overcast
11:55 AM 14.0 °F - 8.6 °F 79% 29.85 in 10.0 mi Calm Calm - N/A   Scattered Clouds
12:15 PM 14.0 °F 6.5 °F 8.6 °F 79% 29.84 in 10.0 mi SE 4.6 mph - N/A   Mostly Cloudy
12:35 PM 14.0 °F 5.1 °F 10.4 °F 86% 29.84 in 10.0 mi South 5.8 mph - N/A   Overcast
12:55 PM 15.8 °F 7.2 °F 10.4 °F 79% 29.84 in 10.0 mi South 5.8 mph - N/A   Overcast
1:15 PM 15.8 °F 6.1 °F 10.4 °F 79% 29.82 in 10.0 mi SSE 6.9 mph - N/A   Overcast
1:35 PM 17.6 °F 8.2 °F 10.4 °F 73% 29.81 in 10.0 mi SSE 6.9 mph - N/A   Mostly Cloudy
1:55 PM 17.6 °F 7.3 °F 10.4 °F 73% 29.80 in 10.0 mi South 8.1 mph - N/A   Overcast
2:15 PM 19.4 °F 7.9 °F 12.2 °F 74% 29.80 in 10.0 mi South 10.4 mph - N/A   Overcast
2:35 PM 19.4 °F 7.9 °F 12.2 °F 74% 29.80 in 10.0 mi South 10.4 mph - N/A   Overcast
2:55 PM 19.4 °F 7.9 °F 12.2 °F 74% 29.80 in 10.0 mi SSW 10.4 mph - N/A   Overcast
3:15 PM 19.4 °F 8.6 °F 14.0 °F 80% 29.80 in 10.0 mi SW 9.2 mph - N/A   Overcast
3:35 PM 19.4 °F 9.5 °F 15.8 °F 86% 29.79 in 10.0 mi South 8.1 mph - N/A   Overcast
3:55 PM 19.4 °F 7.9 °F 15.8 °F 86% 29.79 in 7.0 mi SW 10.4 mph - N/A Rain Light Freezing Rain
4:15 PM 19.4 °F 8.6 °F 15.8 °F 86% 29.79 in 8.0 mi SW 9.2 mph - N/A Rain Light Freezing Rain
4:35 PM 19.4 °F 9.5 °F 17.6 °F 93% 29.78 in 9.0 mi SW 8.1 mph - N/A   Overcast
4:55 PM 19.4 °F 9.5 °F 17.6 °F 93% 29.78 in 9.0 mi SW 8.1 mph - N/A   Overcast
5:15 PM 19.4 °F 9.5 °F 17.6 °F 93% 29.77 in 9.0 mi WSW 8.1 mph - N/A   Overcast
5:35 PM 19.4 °F 12.8 °F 17.6 °F 93% 29.77 in 9.0 mi SW 4.6 mph - N/A   Overcast
6:15 PM 23.0 °F 13.9 °F 21.2 °F 93% 29.77 in 8.0 mi WNW 8.1 mph - N/A   Overcast
6:35 PM 23.0 °F 11.1 °F 21.2 °F 93% 29.77 in 6.0 mi WNW 12.7 mph - N/A   Overcast
6:55 PM 23.0 °F 11.7 °F 21.2 °F 93% 29.77 in 6.0 mi WNW 11.5 mph - N/A   Overcast
7:15 PM 21.2 °F 6.0 °F 19.4 °F 93% 29.78 in 6.0 mi WNW 19.6 mph - N/A   Overcast
7:35 PM 19.4 °F 5.0 °F 17.6 °F 93% 29.80 in 8.0 mi NW 16.1 mph - N/A   Overcast
7:55 PM 19.4 °F 5.5 °F 17.6 °F 93% 29.80 in 9.0 mi NW 15.0 mph - N/A   Overcast
8:15 PM 19.4 °F 5.5 °F 17.6 °F 93% 29.81 in 10.0 mi NW 15.0 mph - N/A   Overcast
8:35 PM 19.4 °F 6.6 °F 17.6 °F 93% 29.81 in 10.0 mi NW 12.7 mph - N/A   Overcast
8:55 PM 19.4 °F 6.6 °F 17.6 °F 93% 29.82 in 10.0 mi NNW 12.7 mph - N/A Snow Light Snow
9:15 PM 19.4 °F 6.6 °F 17.6 °F 93% 29.82 in 10.0 mi NNW 12.7 mph - N/A   Overcast
9:35 PM 17.6 °F 3.7 °F 17.6 °F 100% 29.83 in 10.0 mi NNW 13.8 mph - N/A   Overcast
9:55 PM 17.6 °F 3.7 °F 17.6 °F 100% 29.83 in 10.0 mi NNW 13.8 mph - N/A   Overcast
10:15 PM 17.6 °F 5.0 °F 17.6 °F 100% 29.84 in 10.0 mi NNW 11.5 mph - N/A Snow Light Snow
10:35 PM 17.6 °F 5.0 °F 17.6 °F 100% 29.84 in 7.0 mi NNW 11.5 mph - N/A Snow Light Snow
10:55 PM 17.6 °F 5.7 °F 17.6 °F 100% 29.84 in 5.0 mi NNW 10.4 mph - 0.01 in Snow Light Snow
11:15 PM 17.6 °F 5.7 °F 17.6 °F 100% 29.84 in 7.0 mi NNW 10.4 mph - N/A Snow Light Snow
11:35 PM 17.6 °F 5.7 °F 17.6 °F 100% 29.85 in 8.0 mi NNW 10.4 mph - N/A Snow Light Snow
11:55 PM 17.6 °F 5.7 °F 17.6 °F 100% 29.86 in 4.0 mi NNW 10.4 mph - 0.03 in Snow Light Snow